This is the latest recevied weather packets stored in our database for station/object OK2ILA-14. If no packets are shown the sender has not sent any weather packets the latest 10 day(s).
| Time | Temp. | Humidity | Pressure | Rain* | Wind** | Luminosity | Snow |
|---|---|---|---|---|---|---|---|
| 1777904648 | 25.56° C | 30% | 1011.9 hPa | - | - | - | - |
| 1777904048 | 24.44° C | 31% | 1012.1 hPa | - | - | - | - |
| 1777903448 | 26.11° C | 29% | 1012.1 hPa | - | - | - | - |
| 1777902848 | 25° C | 31% | 1012.2 hPa | - | - | - | - |
| 1777902247 | 25° C | 31% | 1012.1 hPa | - | - | - | - |
| 1777901647 | 25.56° C | 31% | 1012.3 hPa | - | - | - | - |
| 1777900447 | 26.67° C | 30% | 1012.5 hPa | - | - | - | - |
| 1777899854 | 26.67° C | 30% | 1012.6 hPa | - | - | - | - |
| 1777899247 | 26.11° C | 31% | 1012.6 hPa | - | - | - | - |
| 1777898646 | 26.11° C | 31% | 1012.8 hPa | - | - | - | - |
| 1777898046 | 26.11° C | 30% | 1012.7 hPa | - | - | - | - |
| 1777897446 | 26.67° C | 31% | 1012.6 hPa | - | - | - | - |
| 1777896846 | 26.11° C | 31% | 1012.7 hPa | - | - | - | - |
| 1777896246 | 26.67° C | 31% | 1012.7 hPa | - | - | - | - |
| 1777895646 | 25.56° C | 32% | 1012.9 hPa | - | - | - | - |
| 1777895045 | 25.56° C | 31% | 1013.1 hPa | - | - | - | - |
| 1777894445 | 24.44° C | 32% | 1013.2 hPa | - | - | - | - |
| 1777893845 | 24.44° C | 32% | 1013.2 hPa | - | - | - | - |
| 1777893245 | 25° C | 32% | 1013.3 hPa | - | - | - | - |
| 1777892645 | 24.44° C | 33% | 1013.3 hPa | - | - | - | - |
| 1777892045 | 24.44° C | 32% | 1013.6 hPa | - | - | - | - |
| 1777891445 | 24.44° C | 32% | 1013.8 hPa | - | - | - | - |
| 1777890844 | 23.89° C | 33% | 1013.8 hPa | - | - | - | - |
| 1777890244 | 23.89° C | 31% | 1013.8 hPa | - | - | - | - |
| 1777889644 | 25° C | 32% | 1014 hPa | - | - | - | - |
* Rain since midnight (hover to see other rain measurements)
** Current wind speed in m/s (hover to see current wind gust speed)